Stations météo

réclame
Mon MeteoGroup
Hoogeveen aws, Pays-Bas (6279): Température de l'air & dewpoint: 05.12.2019 18:00:00 - 11.12.2019 18:00:00 (CET)Hoogeveen aws, Pays-Bas (6279): Température de l'air 5cm: 05.12.2019 18:00:00 - 11.12.2019 18:00:00 (CET)Hoogeveen aws, Pays-Bas (6279): Vitesse du vent & gusts: 05.12.2019 18:00:00 - 11.12.2019 18:00:00 (CET)Hoogeveen aws, Pays-Bas (6279): Direction du vent: 05.12.2019 18:00:00 - 11.12.2019 18:00:00 (CET)Hoogeveen aws, Pays-Bas (6279): reduced air pressure: 05.12.2019 18:00:00 - 11.12.2019 18:00:00 (CET)Hoogeveen aws, Pays-Bas (6279): visibility: 05.12.2019 18:00:00 - 11.12.2019 18:00:00 (CET)Hoogeveen aws, Pays-Bas (6279): Quantités de précipitations: 05.12.2019 18:00:00 - 11.12.2019 18:00:00 (CET)
Date & Time tt [°C] td [°C] tt 5cm [°C] ff [km/h] ff [knt] fx [km/h] fx [knt] dd ppp [hPa] vv [km] rr [mm]
11.12.2019 18:00:00 5,5 5,1 5,3 11 6 18 10 S 1004,1 5 0,0
11.12.2019 17:00:00 5,8 5,5 5,5 11 6 14 8 SSW 1004,4 6 0,0
11.12.2019 16:00:00 6,1 5,3 5,7 11 6 22 12 S 1004,5 8 0,0
11.12.2019 15:00:00 6,6 5,5 6,5 11 6 22 12 SSW 1004,7 11 0,0
11.12.2019 14:00:00 6,8 5,6 6,9 11 6 18 10 SSW 1005,2 11 0,0
11.12.2019 13:00:00 6,9 6,2 7,0 11 6 22 12 SW 1005,9 10 0,0
11.12.2019 12:00:00 6,8 6,5 6,7 14 8 22 12 SW 1006,6 9 0,0
11.12.2019 11:00:00 6,5 6,2 6,4 14 8 25 14 SSW 1007,3 8 0,0
11.12.2019 10:00:00 6,2 6,1 6,2 14 8 22 12 SSW 1007,4 7 0,0
11.12.2019 09:00:00 6,0 5,9 5,9 11 6 18 10 SSW 1007,6 4,0 0,8
11.12.2019 08:00:00 5,8 5,8 5,7 18 10 29 16 SSW 1008,2 3,4 0,8
11.12.2019 07:00:00 5,8 5,6 5,7 18 10 32 18 SSW 1008,1 14 0,4
11.12.2019 06:00:00 5,8 5,5 5,6 22 12 40 21 SSW 1007,9 14 0,4
11.12.2019 05:00:00 5,6 5,1 5,4 25 14 43 23 SSW 1008,0 14 0,9
11.12.2019 04:00:00 5,5 4,3 5,3 29 16 50 27 SSW 1008,2 13 0,0
11.12.2019 03:00:00 5,8 3,6 5,6 32 18 61 33 SSW 1008,1 9 0,0
11.12.2019 02:00:00 6,6 2,1 6,2 36 19 54 29 SSW 1008,2 40 0,0
11.12.2019 01:00:00 6,1 0,8 5,6 29 16 50 27 SSW 1008,8 42 0,0
11.12.2019 00:00:00 5,7 0,6 5,4 36 19 61 33 S 1009,5 38 0,0
10.12.2019 23:00:00 5,6 0,3 5,2 40 21 58 31 SSW 1010,1 44 0,0
10.12.2019 22:00:00 5,5 0,4 5,1 36 19 58 31 SSW 1010,9 44 0,0
10.12.2019 21:00:00 5,2 0,4 4,8 32 18 58 31 S 1011,7 44 0,0
10.12.2019 20:00:00 5,2 0,7 4,8 36 19 54 29 S 1012,8 48 0,0
10.12.2019 19:00:00 5,2 0,6 4,7 32 18 50 27 S 1014,3 43 0,0
10.12.2019 18:00:00 4,8 1,0 4,4 29 16 47 25 S 1015,5 33 0,0
10.12.2019 17:00:00 4,6 1,2 4,2 29 16 47 25 S 1016,7 24 0,0
10.12.2019 16:00:00 4,6 1,3 4,2 25 14 43 23 S 1018,1 27 0,0
10.12.2019 15:00:00 5,2 1,2 4,7 25 14 40 21 SSW 1019,0 29 0,0
10.12.2019 14:00:00 5,6 1,9 5,6 22 12 43 23 SSW 1020,3 29 0,0
10.12.2019 13:00:00 6,1 2,4 6,5 25 14 36 19 SSW 1021,3 22 0,0
10.12.2019 12:00:00 5,4 2,5 5,6 18 10 32 18 SSW 1022,4 21 0,0
10.12.2019 11:00:00 4,1 1,8 4,2 18 10 25 14 SSW 1023,3 21 0,0
10.12.2019 10:00:00 3,0 1,3 2,5 14 8 18 10 SSW 1023,6 19 0,0
10.12.2019 09:00:00 1,4 0,3 0,6 14 8 14 8 SSW 1023,4 16 0,0
10.12.2019 08:00:00 1,6 0,4 0,7 11 6 14 8 SW 1023,0 17 0,0
10.12.2019 07:00:00 1,1 -0,7 0,2 11 6 14 8 WSW 1022,9 22 0,0
10.12.2019 06:00:00 1,9 -0,3 1,3 11 6 14 8 WSW 1022,6 22 0,0
10.12.2019 05:00:00 3,3 0,4 2,6 11 6 22 12 W 1022,2 21 0,0
10.12.2019 04:00:00 3,0 -0,3 2,1 14 8 22 12 W 1021,8 21 0,0
10.12.2019 03:00:00 3,5 -0,3 1,9 7 4 18 10 W 1021,2 23 0,0
10.12.2019 02:00:00 3,1 -0,5 2,2 14 8 22 12 W 1020,0 21 0,0
10.12.2019 01:00:00 3,3 0,1 2,0 14 8 22 12 W 1019,1 22 0,0
10.12.2019 00:00:00 4,6 0,1 3,7 14 8 40 21 WNW 1018,1 31 0,0
09.12.2019 23:00:00 4,5 0,6 3,7 22 12 43 23 WNW 1017,0 19 0,0
09.12.2019 22:00:00 4,5 1,2 3,8 11 6 29 16 WNW 1015,7 19 0,0
09.12.2019 21:00:00 5,2 0,8 4,2 18 10 50 27 WNW 1014,0 21 0,1
09.12.2019 20:00:00 5,1 1,5 4,5 18 10 32 18 NW 1012,5 18 0,0
09.12.2019 19:00:00 5,6 1,7 4,9 22 12 47 25 NW 1010,4 22 0,0
09.12.2019 18:00:00 6,3 1,9 5,7 25 14 40 21 NW 1008,1 15 0,0
09.12.2019 17:00:00 6,9 3,3 6,3 25 14 32 18 NNW 1005,8 15 0,0
09.12.2019 16:00:00 6,9 3,4 6,5 25 14 32 18 NNW 1003,4 30 0,1
09.12.2019 15:00:00 6,5 5,1 6,3 18 10 32 18 NW 1001,1 28 1,0
09.12.2019 14:00:00 7,3 4,9 7,1 18 10 25 14 WNW 999,0 38 0,1
09.12.2019 13:00:00 7,5 5,9 7,6 14 8 25 14 W 997,4 17 0,0
09.12.2019 12:00:00 6,4 5,1 6,4 18 10 25 14 WSW 996,2 30 0,0
09.12.2019 11:00:00 6,1 4,8 6,1 14 8 18 10 SW 995,4 50 0,0
09.12.2019 10:00:00 5,9 4,8 5,7 11 6 22 12 SW 994,4 50 0,0
09.12.2019 09:00:00 5,7 5,0 5,7 11 6 18 10 SW 993,6 5 0,0
09.12.2019 08:00:00 5,8 4,9 5,4 11 6 29 16 SW 992,8 24 0,1
09.12.2019 07:00:00 6,4 4,2 6,0 18 10 36 19 SW 992,5 24 0,0
09.12.2019 06:00:00 6,0 3,9 5,2 25 14 40 21 SSW 992,6 24 0,0
09.12.2019 05:00:00 6,2 4,0 5,5 25 14 40 21 SSW 992,8 24 0,0
09.12.2019 04:00:00 6,3 4,0 5,8 29 16 43 23 SW 993,3 17 0,0
09.12.2019 03:00:00 6,4 3,9 5,7 29 16 36 19 SSW 993,8 23 0,0
09.12.2019 02:00:00 6,4 4,1 5,8 29 16 43 23 SW 993,8 20 0,0
09.12.2019 01:00:00 6,9 4,2 6,4 25 14 47 25 SW 994,1 17 0,0
09.12.2019 00:00:00 6,7 4,7 6,1 25 14 43 23 SW 994,3 19 0,0
08.12.2019 23:00:00 6,5 4,9 6,0 22 12 58 31 SW 994,2 20 1,7
08.12.2019 22:00:00 7,8 4,8 7,4 32 18 54 29 SW 994,7 11 0,2
08.12.2019 21:00:00 8,1 5,2 7,7 29 16 50 27 SW 994,6 13 0,3
08.12.2019 20:00:00 8,5 5,1 8,1 29 16 43 23 SW 995,2 13 0,0
08.12.2019 19:00:00 8,0 5,2 7,5 25 14 40 21 SW 995,6 13 0,0
08.12.2019 18:00:00 8,6 5,1 7,8 29 16 47 25 SW 996,1 14 0,0
08.12.2019 17:00:00 8,5 5,7 8,0 25 14 40 21 SW 996,6 13 0,0
08.12.2019 16:00:00 8,8 5,8 8,4 25 14 50 27 WSW 996,7 17 0,0
08.12.2019 15:00:00 8,8 6,4 8,6 29 16 58 31 WSW 996,6 38 0,2
08.12.2019 14:00:00 10,1 7,2 9,9 32 18 58 31 WSW 996,5 14 0,0
08.12.2019 13:00:00 10,9 8,6 10,1 36 19 58 31 WSW 996,4 37 0,1
08.12.2019 12:00:00 9,6 9,0 9,4 40 21 61 33 WSW 996,6 4,9 1,3
08.12.2019 11:00:00 9,4 8,9 9,1 32 18 54 29 SW 997,0 6 0,8
08.12.2019 10:00:00 9,2 8,3 8,8 40 21 61 33 SW 997,3 10 0,9
08.12.2019 09:00:00 8,8 7,9 8,4 36 19 58 31 SSW 997,7 21 0,4
08.12.2019 08:00:00 8,4 7,7 8,2 32 18 54 29 SSW 998,5 8 1,3
08.12.2019 07:00:00 8,8 6,2 8,5 36 19 61 33 SSW 999,6 17 0,0
08.12.2019 06:00:00 8,7 5,3 8,3 36 19 61 33 SSW 1000,5 48 0,0
08.12.2019 05:00:00 8,9 5,4 8,6 36 19 54 29 SSW 1002,0 48 0,0
08.12.2019 04:00:00 9,2 5,6 8,9 32 18 61 33 SW 1003,8 50 0,0
08.12.2019 03:00:00 8,9 6,1 8,5 32 18 50 27 SW 1005,0 41 0,0
08.12.2019 02:00:00 8,7 6,4 8,4 29 16 43 23 SSW 1006,3 29 0,0
08.12.2019 01:00:00 8,3 6,1 8,0 25 14 43 23 SSW 1007,2 24 0,0
08.12.2019 00:00:00 8,1 5,1 7,7 25 14 40 21 SSW 1008,7 48 0,0
07.12.2019 23:00:00 7,9 5,2 7,5 22 12 40 21 SW 1009,5 40 0,0
07.12.2019 22:00:00 8,3 6,2 8,0 22 12 32 18 SW 1010,6 33 0,0
07.12.2019 21:00:00 8,3 6,2 8,1 22 12 29 16 SW 1011,1 29 0,0
07.12.2019 20:00:00 8,5 7,0 8,3 18 10 36 19 SW 1011,4 21 0,0
07.12.2019 19:00:00 8,6 7,3 8,4 22 12 29 16 WSW 1011,9 21 0,0
07.12.2019 18:00:00 8,7 7,5 8,5 18 10 29 16 WSW 1012,0 21 0,0
07.12.2019 17:00:00 8,9 7,3 8,7 22 12 36 19 WSW 1011,5 24 0,0
07.12.2019 16:00:00 9,1 7,4 9,0 22 12 36 19 WSW 1011,1 17 0,0
07.12.2019 15:00:00 9,4 7,5 9,2 25 14 36 19 WSW 1010,8 22 0,0
07.12.2019 14:00:00 9,3 7,6 9,2 18 10 32 18 WSW 1010,5 19 0,0
07.12.2019 13:00:00 9,2 7,7 9,1 18 10 32 18 WSW 1010,5 20 0,0
07.12.2019 12:00:00 8,9 7,8 8,7 18 10 29 16 WSW 1010,1 17 0,0
07.12.2019 11:00:00 8,8 7,6 8,7 18 10 29 16 WSW 1010,1 18 0,0
07.12.2019 10:00:00 8,5 7,5 8,3 22 12 36 19 WSW 1009,7 17 0,0
07.12.2019 09:00:00 8,7 7,2 8,3 22 12 40 21 W 1009,1 14 0,0
07.12.2019 08:00:00 8,6 7,4 8,3 25 14 32 18 WSW 1007,9 17 0,0
07.12.2019 07:00:00 8,4 7,7 8,2 22 12 36 19 WSW 1007,0 8 0,1
07.12.2019 06:00:00 8,5 7,8 8,2 22 12 32 18 W 1006,2 15 0,1
07.12.2019 05:00:00 8,5 7,8 8,3 22 12 36 19 W 1005,3 13 0,0
07.12.2019 04:00:00 8,7 7,7 8,4 25 14 40 21 W 1004,3 12 0,0
07.12.2019 03:00:00 8,7 7,9 8,5 25 14 40 21 W 1003,3 14 0,0
07.12.2019 02:00:00 8,8 8,3 8,6 25 14 43 23 W 1002,1 15 0,4
07.12.2019 01:00:00 8,2 8,1 8,1 18 10 29 16 WSW 1001,1 5 1,2
07.12.2019 00:00:00 8,0 7,8 7,8 18 10 40 21 SW 1000,6 8 1,7
06.12.2019 23:00:00 8,0 7,4 7,7 29 16 43 23 SSW 999,7 8 0,5
06.12.2019 22:00:00 8,0 7,4 7,8 32 18 50 27 SSW 1000,3 10 0,2
06.12.2019 21:00:00 8,0 7,4 7,8 32 18 54 29 SSW 1000,5 8 0,0
06.12.2019 20:00:00 7,9 7,3 7,7 36 19 54 29 SSW 1000,8 16 0,1
06.12.2019 19:00:00 7,6 7,2 7,3 32 18 50 27 SW 1001,3 15 0,2
06.12.2019 18:00:00 7,4 7,2 7,2 32 18 50 27 SSW 1001,7 6 0,2
06.12.2019 17:00:00 7,0 6,9 6,8 32 18 43 23 SSW 1002,1 3,7 0,6
06.12.2019 16:00:00 6,6 6,5 6,5 29 16 43 23 SSW 1002,5 3,2 0,7
06.12.2019 15:00:00 6,2 6,0 6,2 29 16 47 25 SSW 1003,2 6 0,5
06.12.2019 14:00:00 5,9 5,9 5,9 29 16 47 25 SSW 1004,2 10 1,8
06.12.2019 13:00:00 5,6 5,4 5,5 29 16 47 25 SSW 1005,2 2,9 0,9
06.12.2019 12:00:00 5,3 5,1 5,2 29 16 43 23 SSW 1006,3 12 0,3
06.12.2019 11:00:00 5,1 4,9 5,1 29 16 43 23 SSW 1007,2 2,3 0,5
06.12.2019 10:00:00 4,9 4,9 4,9 29 16 43 23 SSW 1007,9 2,1 0,9
06.12.2019 09:00:00 5,1 4,8 5,0 29 16 43 23 SSW 1008,2 2,6 0,1
06.12.2019 08:00:00 5,3 5,0 5,2 29 16 40 21 SSW 1008,4 4,9 0,4
06.12.2019 07:00:00 5,2 5,0 5,1 25 14 40 21 SSW 1008,6 5 0,5
06.12.2019 06:00:00 5,2 4,9 5,1 25 14 50 27 SSW 1008,9 4,7 1,0
06.12.2019 05:00:00 5,3 4,7 5,2 25 14 43 23 SW 1009,1 5 0,3
06.12.2019 04:00:00 5,2 4,2 5,0 29 16 50 27 SSW 1009,4 6 0,0
06.12.2019 03:00:00 4,8 4,0 4,7 29 16 47 25 SSW 1010,1 6 0,0
06.12.2019 02:00:00 4,9 4,1 4,7 32 18 50 27 SSW 1010,6 5 0,0
06.12.2019 01:00:00 4,6 4,0 4,5 32 18 50 27 SSW 1011,1 4,6 0,0
06.12.2019 00:00:00 4,5 3,7 4,3 32 18 43 23 SSW 1012,4 4,6 0,0
05.12.2019 23:00:00 4,1 3,5 4,0 32 18 43 23 SW 1013,2 3,7 0,0
05.12.2019 22:00:00 3,8 3,2 3,7 25 14 50 27 SSW 1014,1 4,0 0,0
05.12.2019 21:00:00 3,7 3,2 3,6 29 16 43 23 SSW 1014,5 3,6 0,0
05.12.2019 20:00:00 3,4 3,3 3,3 25 14 40 21 SSW 1015,4 2,2 0,0
05.12.2019 19:00:00 3,2 3,1 3,1 22 12 36 19 SSW 1015,8 1,8 0,0
05.12.2019 18:00:00 2,5 2,5 2,4 18 10 32 18 SSW 1016,8 1,0 0,0

tt = Température de l'air
td = dewpoint
tt 5cm = Température de l'air 5cm
ff = Vitesse du vent
fx = gusts
dd = Direction du vent
ppp = reduced air pressure
vv = visibility
rr = Quantités de précipitations

stations d'obs. à proximité